| time (UTC) | temp C | wind direction | speed KPH | gust KPH | rain 1hr cm | rain 24hr cm | rain mn cm | humidity % | barometer mb |
| 20260504151031 | 17 | 202 | 6.4 | 9.7 | 0.00 | 0.00 | 0.00 | 53 | 1016.5 |
| 20260504141049 | 15 | 200 | 3.2 | 4.8 | 0.00 | 0.00 | 0.00 | 63 | 1016.7 |
| 20260504081028 | 7 | 0.0 | 0.0 | 0.00 | 0.00 | 0.00 | 88 | 1017.7 | |
| 20260504045110 | 5 | 0.0 | 0.0 | 0.00 | 0.00 | 0.00 | 82 | 1018.2 | |
| 20260504044038 | 5 | 0.0 | 0.0 | 0.00 | 0.00 | 0.00 | 81 | 1018.2 | |
| 20260504043023 | 5 | 0.0 | 0.0 | 0.00 | 0.00 | 0.00 | 81 | 1018.2 | |
| 20260504042029 | 5 | 0.0 | 0.0 | 0.00 | 0.00 | 0.00 | 83 | 1018.1 | |
| 20260504041017 | 5 | 0.0 | 0.0 | 0.00 | 0.00 | 0.00 | 81 | 1018.0 | |
| 20260504040022 | 5 | 0.0 | 0.0 | 0.00 | 0.00 | 0.00 | 79 | 1018.0 | |
| 20260504035027 | 6 | 0.0 | 0.0 | 0.00 | 0.00 | 0.00 | 79 | 1018.2 | |
| 20260504034035 | 6 | 0.0 | 0.0 | 0.00 | 0.00 | 0.00 | 78 | 1018.2 | |
| 20260504033020 | 6 | 0.0 | 0.0 | 0.00 | 0.00 | 0.00 | 77 | 1018.2 | |
| 20260504032026 | 6 | 0.0 | 0.0 | 0.00 | 0.00 | 0.00 | 77 | 1018.1 | |
| 20260504031032 | 6 | 0.0 | 0.0 | 0.00 | 0.00 | 0.00 | 77 | 1018.0 | |
| 20260504030019 | 6 | 0.0 | 0.0 | 0.00 | 0.00 | 0.00 | 77 | 1018.0 | |
| 20260504025024 | 6 | 0.0 | 0.0 | 0.00 | 0.00 | 0.00 | 76 | 1018.0 | |
| 20260504024030 | 7 | 0.0 | 0.0 | 0.00 | 0.00 | 0.00 | 73 | 1018.0 | |
| 20260504023018 | 7 | 0.0 | 0.0 | 0.00 | 0.00 | 0.00 | 73 | 1017.9 | |
| 20260504022023 | 7 | 0.0 | 0.0 | 0.00 | 0.00 | 0.00 | 70 | 1017.8 | |
| 20260504021029 | 7 | 0.0 | 0.0 | 0.00 | 0.00 | 0.00 | 69 | 1017.7 | |
| 20260504020016 | 8 | 0.0 | 0.0 | 0.00 | 0.00 | 0.00 | 67 | 1017.5 | |
| 20260504015022 | 8 | 0.0 | 0.0 | 0.00 | 0.00 | 0.00 | 65 | 1017.5 | |
| 20260504014027 | 8 | 0.0 | 0.0 | 0.00 | 0.00 | 0.00 | 63 | 1017.3 | |
| 20260504013015 | 9 | 0.0 | 0.0 | 0.00 | 0.00 | 0.00 | 63 | 1017.2 | |
| 20260504012020 | 9 | 0.0 | 0.0 | 0.00 | 0.00 | 0.00 | 63 | 1017.2 | |
| 20260504011026 | 10 | 0.0 | 0.0 | 0.00 | 0.00 | 0.00 | 60 | 1017.2 | |
| 20260504010025 | 10 | 0.0 | 0.0 | 0.00 | 0.00 | 0.00 | 60 | 1017.0 | |
| 20260504005019 | 11 | 0.0 | 0.0 | 0.00 | 0.00 | 0.00 | 55 | 1017.0 | |
| 20260504004045 | 11 | 0.0 | 0.0 | 0.00 | 0.00 | 0.00 | 54 | 1017.0 | |
| 20260504003024 | 11 | 0.0 | 0.0 | 0.00 | 0.00 | 0.00 | 54 | 1017.0 | |
| 20260504002017 | 12 | 0.0 | 0.0 | 0.00 | 0.00 | 0.00 | 52 | 1017.0 | |
| 20260504001023 | 13 | 0.0 | 0.0 | 0.00 | 0.00 | 0.00 | 52 | 1017.0 | |
| 20260504000022 | 13 | 0.0 | 0.0 | 0.00 | 0.00 | 0.00 | 51 | 1016.8 | |
| 20260503235016 | 14 | 0.0 | 0.0 | 0.00 | 0.00 | 0.00 | 47 | 1016.8 | |
| 20260503234021 | 15 | 199 | 1.6 | 3.2 | 0.00 | 0.00 | 0.00 | 42 | 1016.7 |
| 20260503233021 | 15 | 0.0 | 0.0 | 0.00 | 0.00 | 0.00 | 41 | 1016.7 | |
| 20260503232020 | 16 | 211 | 3.2 | 4.8 | 0.00 | 0.00 | 0.00 | 39 | 1016.6 |
| 20260503231020 | 16 | 198 | 4.8 | 9.7 | 0.00 | 0.00 | 0.00 | 38 | 1016.5 |
| 20260503230019 | 16 | 197 | 3.2 | 4.8 | 0.00 | 0.00 | 0.00 | 37 | 1016.5 |
| 20260503225038 | 16 | 214 | 4.8 | 6.4 | 0.00 | 0.00 | 0.00 | 37 | 1016.5 |
| 20260503224018 | 16 | 334 | 3.2 | 6.4 | 0.00 | 0.00 | 0.00 | 37 | 1016.5 |
| 20260503223018 | 16 | 194 | 4.8 | 9.7 | 0.00 | 0.00 | 0.00 | 36 | 1016.5 |
| 20260503222017 | 16 | 331 | 3.2 | 8.0 | 0.00 | 0.00 | 0.00 | 37 | 1016.6 |
| 20260503221017 | 16 | 316 | 4.8 | 8.0 | 0.00 | 0.00 | 0.00 | 37 | 1016.7 |
| 20260503220016 | 16 | 326 | 4.8 | 8.0 | 0.00 | 0.00 | 0.00 | 37 | 1016.7 |
| 20260503215016 | 16 | 359 | 6.4 | 9.7 | 0.00 | 0.00 | 0.00 | 36 | 1016.7 |
| 20260503214015 | 16 | 279 | 4.8 | 9.7 | 0.00 | 0.00 | 0.00 | 36 | 1016.8 |
| 20260503213015 | 17 | 9 | 4.8 | 12.9 | 0.00 | 0.00 | 0.00 | 37 | 1016.7 |
| 20260503212026 | 17 | 245 | 6.4 | 12.9 | 0.00 | 0.00 | 0.00 | 37 | 1016.7 |
| 20260503211032 | 17 | 197 | 4.8 | 11.3 | 0.00 | 0.00 | 0.00 | 37 | 1016.7 |
| 20260503210019 | 17 | 11 | 3.2 | 8.0 | 0.00 | 0.00 | 0.00 | 37 | 1016.8 |
| 20260503205025 | 17 | 314 | 4.8 | 9.7 | 0.00 | 0.00 | 0.00 | 37 | 1017.0 |
| 20260503204030 | 17 | 289 | 6.4 | 12.9 | 0.00 | 0.00 | 0.00 | 37 | 1017.2 |
| 20260503203038 | 18 | 17 | 6.4 | 8.0 | 0.00 | 0.00 | 0.00 | 36 | 1017.1 |
| 20260503202023 | 18 | 14 | 4.8 | 8.0 | 0.00 | 0.00 | 0.00 | 37 | 1017.1 |
| 20260503201029 | 17 | 3 | 6.4 | 12.9 | 0.00 | 0.00 | 0.00 | 37 | 1017.2 |
| 20260503200016 | 17 | 170 | 6.4 | 9.7 | 0.00 | 0.00 | 0.00 | 36 | 1017.5 |
| 20260503195022 | 18 | 262 | 6.4 | 11.3 | 0.00 | 0.00 | 0.00 | 38 | 1017.7 |
| 20260503194027 | 17 | 223 | 6.4 | 11.3 | 0.00 | 0.00 | 0.00 | 38 | 1017.9 |
| 20260503193015 | 17 | 359 | 8.0 | 20.9 | 0.00 | 0.00 | 0.00 | 37 | 1018.1 |
| 20260503192040 | 17 | 12 | 8.0 | 16.1 | 0.00 | 0.00 | 0.00 | 38 | 1018.2 |
| 20260503191025 | 17 | 336 | 9.7 | 22.5 | 0.00 | 0.00 | 0.00 | 38 | 1018.2 |
| 20260503190111 | 17 | 52 | 6.4 | 11.3 | 0.00 | 0.00 | 0.00 | 40 | 1018.4 |
| 20260503185019 | 17 | 194 | 4.8 | 8.0 | 0.00 | 0.00 | 0.00 | 41 | 1018.5 |
| 20260503184044 | 16 | 223 | 8.0 | 12.9 | 0.00 | 0.00 | 0.00 | 40 | 1018.5 |
| 20260503183030 | 16 | 41 | 6.4 | 9.7 | 0.00 | 0.00 | 0.00 | 41 | 1018.6 |
| 20260503182017 | 16 | 323 | 6.4 | 14.5 | 0.00 | 0.00 | 0.00 | 43 | 1018.7 |
| 20260503181023 | 16 | 157 | 6.4 | 12.9 | 0.00 | 0.00 | 0.00 | 43 | 1018.7 |
| 20260503180048 | 15 | 57 | 6.4 | 11.3 | 0.00 | 0.00 | 0.00 | 43 | 1018.7 |
| 20260503175056 | 15 | 233 | 4.8 | 11.3 | 0.00 | 0.00 | 0.00 | 44 | 1018.9 |
| 20260503174022 | 14 | 34 | 6.4 | 11.3 | 0.00 | 0.00 | 0.00 | 45 | 1019.1 |
| 20260503173027 | 14 | 187 | 4.8 | 9.7 | 0.00 | 0.00 | 0.00 | 44 | 1019.2 |
| 20260503172052 | 13 | 77 | 4.8 | 8.0 | 0.00 | 0.00 | 0.00 | 47 | 1019.2 |
| 20260503171020 | 13 | 348 | 6.4 | 11.3 | 0.00 | 0.00 | 0.00 | 48 | 1019.2 |